^^
Station Historical Data
Daily Summary for August 15, 2021 Units:  English    Metric   Both
Daily Weekly Monthly Yearly
  High: Low: Average:
Temperature: 75 °F 63.7 °F 67.2 °F
Dew Point: 62 °F 55 °F 57.4 °F
Humidity: 78% 60% 71%
Wind Speed: 3mph 1mph 1.5mph
Wind Gust: 5mph - -
Wind- - SSE
Pressure: 30.25 in 30.20 in -
Precipitation: 0.00 in    
 
 
Tabular Data for August 15, 2021
Time Temperature Dew Point Pressure Wind Wind Speed Wind Gust Humidity Rainfall Rate (Hourly) solar
00:00 65.9 °F 57 °F 30.23 in SE 2 mph 3 mph 73% 0.00 in 0 W/m2
00:05 65.9 °F 57 °F 30.22 in SSW 2 mph 3 mph 73% 0.00 in 0 W/m2
00:10 65.9 °F 57.4 °F 30.23 in NE 2 mph 2 mph 74% 0.00 in 0 W/m2
00:15 65.8 °F 57.3 °F 30.23 in SSW 2 mph 2 mph 74% 0.00 in 0 W/m2
00:20 65.8 °F 57.7 °F 30.23 in SE 2 mph 3 mph 75% 0.00 in 0 W/m2
00:25 65.8 °F 57.3 °F 30.23 in East 2 mph 3 mph 74% 0.00 in 0 W/m2
00:30 65.8 °F 58 °F 30.23 in East 2 mph 2 mph 76% 0.00 in 0 W/m2
00:35 65.6 °F 57.1 °F 30.23 in SSE 2 mph 2 mph 74% 0.00 in 0 W/m2
00:40 65.6 °F 57.1 °F 30.23 in SSE 2 mph 2 mph 74% 0.00 in 0 W/m2
00:45 65.6 °F 57.5 °F 30.23 in NE 2 mph 2 mph 75% 0.00 in 0 W/m2
00:50 65.5 °F 57.4 °F 30.23 in ESE 2 mph 2 mph 75% 0.00 in 0 W/m2
00:55 65.4 °F 56.9 °F 30.23 in South 1 mph 2 mph 74% 0.00 in 0 W/m2
01:00 65.3 °F 57.2 °F 30.23 in East 1 mph 1 mph 75% 0.00 in 0 W/m2
01:05 65.3 °F 57.5 °F 30.23 in South 2 mph 2 mph 76% 0.00 in 0 W/m2
01:10 65.3 °F 57.2 °F 30.23 in East 2 mph 2 mph 75% 0.00 in 0 W/m2
01:15 65.3 °F 57.2 °F 30.23 in SE 2 mph 3 mph 75% 0.00 in 0 W/m2
01:20 65.4 °F 57.3 °F 30.23 in ENE 2 mph 2 mph 75% 0.00 in 0 W/m2
01:25 65.3 °F 57.5 °F 30.23 in SW 2 mph 2 mph 76% 0.00 in 0 W/m2
01:30 65.4 °F 57.6 °F 30.23 in SE 2 mph 2 mph 76% 0.00 in 0 W/m2
01:35 65.4 °F 57.6 °F 30.23 in SSE 2 mph 4 mph 76% 0.00 in 0 W/m2
01:40 65.4 °F 57.3 °F 30.23 in ESE 2 mph 2 mph 75% 0.00 in 0 W/m2
01:45 65.3 °F 57.2 °F 30.23 in ESE 2 mph 2 mph 75% 0.00 in 0 W/m2
01:50 65.2 °F 57.1 °F 30.23 in SE 2 mph 2 mph 75% 0.00 in 0 W/m2
01:55 65.2 °F 57.4 °F 30.23 in SSW 1 mph 2 mph 76% 0.00 in 0 W/m2
02:00 65.2 °F 57.4 °F 30.23 in ESE 1 mph 2 mph 76% 0.00 in 0 W/m2
02:05 65.4 °F 58 °F 30.23 in ESE 2 mph 4 mph 77% 0.00 in 0 W/m2
02:10 65.4 °F 57.6 °F 30.23 in SW 2 mph 2 mph 76% 0.00 in 0 W/m2
02:15 65.5 °F 57.7 °F 30.23 in South 2 mph 2 mph 76% 0.00 in 0 W/m2
02:20 65.4 °F 57.3 °F 30.23 in SSE 2 mph 2 mph 75% 0.00 in 0 W/m2
02:25 65.4 °F 57.3 °F 30.23 in SSE 2 mph 2 mph 75% 0.00 in 0 W/m2
02:30 65.3 °F 57.9 °F 30.23 in SSE 2 mph 2 mph 77% 0.00 in 0 W/m2
02:35 65.3 °F 57.5 °F 30.23 in SE 1 mph 2 mph 76% 0.00 in 0 W/m2
02:40 65.1 °F 57.3 °F 30.23 in SSE 1 mph 1 mph 76% 0.00 in 0 W/m2
02:45 65 °F 57.6 °F 30.23 in SE 1 mph 1 mph 77% 0.00 in 0 W/m2
02:50 64.9 °F 57.5 °F 30.23 in East 1 mph 2 mph 77% 0.00 in 0 W/m2
02:55 64.7 °F 57.3 °F 30.23 in ENE 1 mph 2 mph 77% 0.00 in 0 W/m2
03:00 64.6 °F 57.6 °F 30.23 in North 1 mph 1 mph 78% 0.00 in 0 W/m2
03:05 64.6 °F 57.2 °F 30.23 in SW 1 mph 1 mph 77% 0.00 in 0 W/m2
03:10 64.6 °F 57.2 °F 30.23 in ESE 1 mph 1 mph 77% 0.00 in 0 W/m2
03:15 64.6 °F 57.6 °F 30.23 in SSE 1 mph 2 mph 78% 0.00 in 0 W/m2
03:20 64.7 °F 57.7 °F 30.23 in ESE 1 mph 1 mph 78% 0.00 in 0 W/m2
03:25 64.6 °F 56.9 °F 30.23 in SE 2 mph 2 mph 76% 0.00 in 0 W/m2
03:30 64.5 °F 57.1 °F 30.23 in SSE 2 mph 2 mph 77% 0.00 in 0 W/m2
03:35 64.6 °F 57.2 °F 30.23 in South 2 mph 2 mph 77% 0.00 in 0 W/m2
03:40 64.7 °F 57.7 °F 30.23 in ENE 1 mph 1 mph 78% 0.00 in 0 W/m2
03:45 64.8 °F 57.8 °F 30.23 in West 1 mph 1 mph 78% 0.00 in 0 W/m2
03:50 64.7 °F 57.7 °F 30.23 in NNW 1 mph 2 mph 78% 0.00 in 0 W/m2
03:55 64.6 °F 57.2 °F 30.23 in SSE 1 mph 2 mph 77% 0.00 in 0 W/m2
04:00 64.5 °F 57.5 °F 30.23 in West 1 mph 1 mph 78% 0.00 in 0 W/m2
04:05 64.4 °F 57.4 °F 30.23 in NNE 1 mph 2 mph 78% 0.00 in 0 W/m2
04:10 64.3 °F 56.9 °F 30.22 in SSW 1 mph 1 mph 77% 0.00 in 0 W/m2
04:15 64.3 °F 57.3 °F 30.23 in NE 1 mph 2 mph 78% 0.00 in 0 W/m2
04:20 64.2 °F 57.2 °F 30.22 in NW 1 mph 1 mph 78% 0.00 in 0 W/m2
04:25 64.1 °F 57.1 °F 30.23 in East 2 mph 2 mph 78% 0.00 in 0 W/m2
04:30 64 °F 57 °F 30.22 in North 1 mph 1 mph 78% 0.00 in 0 W/m2
04:35 64 °F 57 °F 30.22 in ESE 1 mph 1 mph 78% 0.00 in 0 W/m2
04:40 64 °F 57 °F 30.22 in NNW 1 mph 2 mph 78% 0.00 in 0 W/m2
04:45 63.9 °F 56.9 °F 30.22 in NNW 2 mph 2 mph 78% 0.00 in 0 W/m2
04:50 63.9 °F 56.5 °F 30.22 in NW 1 mph 2 mph 77% 0.00 in 0 W/m2
04:55 63.9 °F 56.2 °F 30.22 in West 1 mph 2 mph 76% 0.00 in 0 W/m2
05:00 63.9 °F 56.5 °F 30.22 in ENE 1 mph 1 mph 77% 0.00 in 0 W/m2
05:05 63.9 °F 56.5 °F 30.22 in NNW 1 mph 1 mph 77% 0.00 in 0 W/m2
05:10 63.8 °F 56.4 °F 30.22 in WNW 1 mph 1 mph 77% 0.00 in 0 W/m2
05:15 63.9 °F 56.2 °F 30.22 in NNW 1 mph 1 mph 76% 0.00 in 0 W/m2
05:20 63.8 °F 55.7 °F 30.22 in SSW 1 mph 1 mph 75% 0.00 in 0 W/m2
05:25 63.8 °F 56.4 °F 30.22 in South 1 mph 2 mph 77% 0.00 in 0 W/m2
05:30 63.7 °F 56 °F 30.22 in NNW 1 mph 1 mph 76% 0.00 in 0 W/m2
05:35 63.8 °F 56.1 °F 30.22 in NE 1 mph 3 mph 76% 0.00 in 0 W/m2
05:40 64 °F 56.6 °F 30.22 in ENE 1 mph 2 mph 77% 0.00 in 0 W/m2
05:45 64.1 °F 56.4 °F 30.22 in SSE 1 mph 2 mph 76% 0.00 in 0 W/m2
05:50 64.1 °F 56 °F 30.22 in WNW 1 mph 1 mph 75% 0.00 in 0 W/m2
05:55 64 °F 55.9 °F 30.22 in WSW 1 mph 1 mph 75% 0.00 in 0 W/m2
06:00 64 °F 55.9 °F 30.22 in SE 1 mph 2 mph 75% 0.00 in 0 W/m2
06:05 64.1 °F 56 °F 30.23 in East 2 mph 2 mph 75% 0.00 in 0 W/m2
06:10 64.1 °F 56 °F 30.23 in NNE 2 mph 2 mph 75% 0.00 in 0 W/m2
06:15 64 °F 55.5 °F 30.23 in NNE 2 mph 2 mph 74% 0.00 in 0 W/m2
06:20 64 °F 56.3 °F 30.23 in South 2 mph 2 mph 76% 0.00 in 0 W/m2
06:25 63.8 °F 55.4 °F 30.23 in North 2 mph 2 mph 74% 0.00 in 0 W/m2
06:30 63.8 °F 56.1 °F 30.23 in North 2 mph 2 mph 76% 0.00 in 0 W/m2
06:35 63.8 °F 56.1 °F 30.23 in NNW 2 mph 2 mph 76% 0.00 in 0 W/m2
06:40 63.9 °F 56.5 °F 30.23 in WNW 1 mph 1 mph 77% 0.00 in 5 W/m2
06:45 64 °F 55.9 °F 30.23 in NW 1 mph 2 mph 75% 0.00 in 7 W/m2
06:50 64.1 °F 56 °F 30.23 in WNW 1 mph 2 mph 75% 0.00 in 9 W/m2
06:55 64 °F 56.3 °F 30.23 in WNW 2 mph 2 mph 76% 0.00 in 12 W/m2
07:00 64 °F 55.9 °F 30.23 in SE 1 mph 1 mph 75% 0.00 in 14 W/m2
07:05 63.9 °F 55.4 °F 30.23 in NE 1 mph 3 mph 74% 0.00 in 16 W/m2
07:10 64 °F 55.2 °F 30.23 in NNW 1 mph 2 mph 73% 0.00 in 19 W/m2
07:15 64 °F 55.9 °F 30.24 in East 1 mph 2 mph 75% 0.00 in 21 W/m2
07:20 63.9 °F 55.4 °F 30.24 in NNW 1 mph 1 mph 74% 0.00 in 25 W/m2
07:25 63.9 °F 55.4 °F 30.24 in WNW 1 mph 1 mph 74% 0.00 in 25 W/m2
07:30 63.9 °F 55.8 °F 30.24 in West 1 mph 1 mph 75% 0.00 in 25 W/m2
07:35 63.9 °F 55.4 °F 30.24 in ENE 1 mph 1 mph 74% 0.00 in 28 W/m2
07:40 64.1 °F 55.6 °F 30.24 in NNE 1 mph 1 mph 74% 0.00 in 42 W/m2
07:45 64.1 °F 55.3 °F 30.24 in NNW 1 mph 1 mph 73% 0.00 in 40 W/m2
07:50 64.2 °F 55.4 °F 30.24 in WNW 1 mph 1 mph 73% 0.00 in 32 W/m2
07:55 64.4 °F 55.6 °F 30.24 in NW 1 mph 2 mph 73% 0.00 in 33 W/m2
08:00 64.5 °F 55.7 °F 30.24 in NNE 1 mph 1 mph 73% 0.00 in 33 W/m2
08:05 64.3 °F 55.1 °F 30.24 in ENE 1 mph 1 mph 72% 0.00 in 35 W/m2
08:10 64.1 °F 55.3 °F 30.24 in SSE 1 mph 2 mph 73% 0.00 in 35 W/m2
08:15 64 °F 55.5 °F 30.24 in ENE 1 mph 2 mph 74% 0.00 in 35 W/m2
08:20 64 °F 55.9 °F 30.25 in ESE 1 mph 1 mph 75% 0.00 in 102 W/m2
08:25 64 °F 56.3 °F 30.25 in East 1 mph 1 mph 76% 0.00 in 232 W/m2
08:30 64.1 °F 55.6 °F 30.25 in East 1 mph 1 mph 74% 0.00 in 246 W/m2
08:35 64.2 °F 55.7 °F 30.24 in SSW 1 mph 2 mph 74% 0.00 in 258 W/m2
08:40 64.3 °F 55.5 °F 30.25 in SW 1 mph 1 mph 73% 0.00 in 274 W/m2
08:45 64.3 °F 55.1 °F 30.25 in NNW 1 mph 1 mph 72% 0.00 in 288 W/m2
08:50 64.6 °F 55 °F 30.25 in ESE 1 mph 1 mph 71% 0.00 in 304 W/m2
08:55 64.8 °F 55.2 °F 30.25 in WNW 1 mph 3 mph 71% 0.00 in 318 W/m2
09:00 64.9 °F 55.3 °F 30.25 in North 1 mph 1 mph 71% 0.00 in 334 W/m2
09:05 65.1 °F 55.1 °F 30.25 in NE 1 mph 2 mph 70% 0.00 in 348 W/m2
09:10 65.4 °F 55 °F 30.25 in SE 1 mph 1 mph 69% 0.00 in 360 W/m2
09:15 65.7 °F 56 °F 30.25 in ENE 1 mph 1 mph 71% 0.00 in 373 W/m2
09:20 66.1 °F 55.6 °F 30.25 in East 1 mph 2 mph 69% 0.00 in 387 W/m2
09:25 66.4 °F 55.5 °F 30.25 in East 1 mph 2 mph 68% 0.00 in 401 W/m2
09:30 66.7 °F 56.2 °F 30.25 in East 1 mph 1 mph 69% 0.00 in 417 W/m2
09:35 66.8 °F 56.3 °F 30.25 in South 1 mph 1 mph 69% 0.00 in 429 W/m2
09:40 67 °F 55.7 °F 30.25 in West 1 mph 2 mph 67% 0.00 in 443 W/m2
09:45 67.2 °F 56.7 °F 30.25 in ESE 1 mph 2 mph 69% 0.00 in 455 W/m2
09:50 67.5 °F 56.6 °F 30.25 in NE 1 mph 1 mph 68% 0.00 in 468 W/m2
09:55 67.8 °F 56.4 °F 30.25 in NNE 1 mph 1 mph 67% 0.00 in 482 W/m2
10:00 68.1 °F 57.1 °F 30.25 in ESE 1 mph 3 mph 68% 0.00 in 494 W/m2
10:05 68.5 °F 57.1 °F 30.25 in ESE 1 mph 3 mph 67% 0.00 in 508 W/m2
10:10 68.7 °F 57.3 °F 30.25 in North 1 mph 1 mph 67% 0.00 in 520 W/m2
10:15 69 °F 57.6 °F 30.25 in North 1 mph 2 mph 67% 0.00 in 533 W/m2
10:20 69.3 °F 57.9 °F 30.25 in SSE 1 mph 1 mph 67% 0.00 in 543 W/m2
10:25 69.6 °F 57.7 °F 30.25 in NNW 1 mph 1 mph 66% 0.00 in 555 W/m2
10:30 69.8 °F 58.3 °F 30.25 in NNW 1 mph 1 mph 67% 0.00 in 568 W/m2
10:35 69.8 °F 56.6 °F 30.24 in North 2 mph 2 mph 63% 0.00 in 578 W/m2
10:40 69.7 °F 57.8 °F 30.24 in NW 2 mph 2 mph 66% 0.00 in 591 W/m2
10:45 69.8 °F 57.9 °F 30.24 in ESE 2 mph 2 mph 66% 0.00 in 603 W/m2
10:50 69.9 °F 58 °F 30.24 in ENE 2 mph 2 mph 66% 0.00 in 615 W/m2
10:55 69.9 °F 57.6 °F 30.24 in NE 2 mph 2 mph 65% 0.00 in 629 W/m2
11:00 69.8 °F 56.6 °F 30.24 in NE 1 mph 1 mph 63% 0.00 in 621 W/m2
11:05 69.9 °F 57.2 °F 30.24 in NE 2 mph 2 mph 64% 0.00 in 647 W/m2
11:10 70.1 °F 57.8 °F 30.24 in NNE 2 mph 2 mph 65% 0.00 in 657 W/m2
11:15 70.1 °F 57.8 °F 30.24 in East 2 mph 2 mph 65% 0.00 in 666 W/m2
11:20 70.2 °F 57.9 °F 30.24 in South 2 mph 2 mph 65% 0.00 in 677 W/m2
11:25 70.3 °F 57.5 °F 30.24 in SSW 1 mph 2 mph 64% 0.00 in 689 W/m2
11:30 70.3 °F 58 °F 30.24 in ENE 1 mph 2 mph 65% 0.00 in 686 W/m2
11:35 70.4 °F 57.6 °F 30.24 in SW 1 mph 2 mph 64% 0.00 in 703 W/m2
11:40 70.6 °F 58.3 °F 30.24 in SE 1 mph 2 mph 65% 0.00 in 714 W/m2
11:45 70.6 °F 57.4 °F 30.24 in NNW 1 mph 2 mph 63% 0.00 in 721 W/m2
11:50 70.9 °F 57.7 °F 30.24 in NE 1 mph 2 mph 63% 0.00 in 728 W/m2
11:55 71 °F 57.8 °F 30.24 in NW 1 mph 2 mph 63% 0.00 in 737 W/m2
12:00 71 °F 58.2 °F 30.24 in SSE 2 mph 2 mph 64% 0.00 in 744 W/m2
12:05 71 °F 58.6 °F 30.24 in NW 2 mph 2 mph 65% 0.00 in 751 W/m2
12:10 71.2 °F 58.8 °F 30.23 in SE 2 mph 3 mph 65% 0.00 in 758 W/m2
12:15 71.3 °F 58.1 °F 30.23 in ESE 2 mph 3 mph 63% 0.00 in 765 W/m2
12:20 71.3 °F 58.1 °F 30.23 in East 2 mph 2 mph 63% 0.00 in 770 W/m2
12:25 71.6 °F 58.3 °F 30.24 in South 2 mph 2 mph 63% 0.00 in 775 W/m2
12:30 71.8 °F 59.4 °F 30.23 in SSW 2 mph 3 mph 65% 0.00 in 782 W/m2
12:35 72.1 °F 59.2 °F 30.23 in East 1 mph 3 mph 64% 0.00 in 786 W/m2
12:40 72.4 °F 58.6 °F 30.23 in SE 1 mph 1 mph 62% 0.00 in 791 W/m2
12:45 72.6 °F 58.8 °F 30.23 in SE 1 mph 1 mph 62% 0.00 in 795 W/m2
12:50 72.8 °F 59 °F 30.23 in SSE 2 mph 2 mph 62% 0.00 in 802 W/m2
12:55 73.1 °F 59.3 °F 30.22 in NE 2 mph 2 mph 62% 0.00 in 805 W/m2
13:00 73.3 °F 59.5 °F 30.22 in East 2 mph 2 mph 62% 0.00 in 809 W/m2
13:05 73.3 °F 60.4 °F 30.22 in NE 1 mph 2 mph 64% 0.00 in 814 W/m2
13:10 73 °F 59.2 °F 30.22 in SSW 1 mph 1 mph 62% 0.00 in 814 W/m2
13:15 73 °F 59.7 °F 30.22 in ESE 2 mph 2 mph 63% 0.00 in 817 W/m2
13:20 73 °F 58.8 °F 30.22 in SW 2 mph 3 mph 61% 0.00 in 821 W/m2
13:25 73 °F 58.3 °F 30.22 in SSW 2 mph 3 mph 60% 0.00 in 821 W/m2
13:30 73.8 °F 60 °F 30.22 in SSE 2 mph 2 mph 62% 0.00 in 823 W/m2
13:35 73.7 °F 59.9 °F 30.21 in ESE 1 mph 2 mph 62% 0.00 in 824 W/m2
13:40 73.8 °F 59.5 °F 30.22 in SE 2 mph 2 mph 61% 0.00 in 826 W/m2
13:45 74.1 °F 60.2 °F 30.21 in NE 2 mph 2 mph 62% 0.00 in 826 W/m2
13:50 74 °F 60.2 °F 30.21 in SW 2 mph 2 mph 62% 0.00 in 824 W/m2
13:55 74 °F 60.6 °F 30.21 in South 2 mph 2 mph 63% 0.00 in 824 W/m2
14:00 74.3 °F 60.4 °F 30.21 in SSW 2 mph 3 mph 62% 0.00 in 823 W/m2
14:05 74.4 °F 61.4 °F 30.21 in South 2 mph 3 mph 64% 0.00 in 821 W/m2
14:10 74.4 °F 60.5 °F 30.21 in SW 2 mph 2 mph 62% 0.00 in 821 W/m2
14:15 74.6 °F 61.2 °F 30.21 in SW 2 mph 3 mph 63% 0.00 in 816 W/m2
14:20 74.6 °F 61.2 °F 30.21 in SSW 2 mph 3 mph 63% 0.00 in 816 W/m2
14:25 74.5 °F 61.5 °F 30.21 in South 2 mph 3 mph 64% 0.00 in 812 W/m2
14:30 74.4 °F 61 °F 30.21 in SW 3 mph 3 mph 63% 0.00 in 809 W/m2
14:35 74.7 °F 61.7 °F 30.21 in SSW 3 mph 5 mph 64% 0.00 in 803 W/m2
14:40 74.7 °F 60.8 °F 30.20 in SSW 3 mph 3 mph 62% 0.00 in 800 W/m2
14:45 74.8 °F 61.8 °F 30.20 in SW 3 mph 3 mph 64% 0.00 in 796 W/m2
14:50 74.6 °F 61.6 °F 30.20 in WSW 2 mph 2 mph 64% 0.00 in 793 W/m2
14:55 74.8 °F 61.4 °F 30.20 in SW 2 mph 2 mph 63% 0.00 in 788 W/m2
15:00 75 °F 62 °F 30.20 in NW 2 mph 2 mph 64% 0.00 in 780 W/m2
Sand Point, Michigan, USA
Compliments of Weather Underground - 2 mb